TimeEST,TemperatureF,Dew PointF,Humidity,Sea Level PressureIn,VisibilityMPH,Wind Direction,Wind SpeedMPH,Gust SpeedMPH,PrecipitationIn,Events,Conditions,WindDirDegrees,DateUTC
12:15 AM,26.6,-2.2,29,30.41,10.0,South,6.9,-,N/A,,Clear,170,2013-01-19 05:15:00
12:35 AM,26.6,-2.2,29,30.41,10.0,SSW,6.9,-,N/A,,Clear,210,2013-01-19 05:35:00
12:55 AM,26.6,-4.0,26,30.42,10.0,SW,8.1,-,N/A,,Clear,220,2013-01-19 05:55:00
1:15 AM,26.6,-4.0,26,30.42,10.0,SSW,9.2,-,N/A,,Clear,210,2013-01-19 06:15:00
1:35 AM,26.6,-2.2,29,30.41,10.0,SSW,8.1,-,N/A,,Clear,210,2013-01-19 06:35:00
1:55 AM,26.6,-2.2,29,30.41,10.0,SW,9.2,-,N/A,,Clear,220,2013-01-19 06:55:00
2:15 AM,28.4,-0.4,29,30.40,10.0,SSW,10.4,-,N/A,,Clear,210,2013-01-19 07:15:00
2:35 AM,28.4,-0.4,29,30.40,10.0,SSW,9.2,-,N/A,,Clear,210,2013-01-19 07:35:00
2:55 AM,28.4,-0.4,29,30.39,10.0,SSW,9.2,-,N/A,,Clear,200,2013-01-19 07:55:00
3:15 AM,28.4,1.4,31,30.38,10.0,SSW,11.5,-,N/A,,Clear,210,2013-01-19 08:15:00
3:35 AM,28.4,1.4,31,30.37,10.0,SSW,9.2,-,N/A,,Clear,210,2013-01-19 08:35:00
3:55 AM,28.4,1.4,31,30.36,10.0,SSW,10.4,-,N/A,,Clear,210,2013-01-19 08:55:00
4:15 AM,30.2,3.2,32,30.35,10.0,SSW,10.4,-,N/A,,Clear,210,2013-01-19 09:15:00
4:35 AM,30.2,1.4,29,30.34,10.0,SSW,9.2,16.1,N/A,,Clear,210,2013-01-19 09:35:00
4:55 AM,30.2,1.4,29,30.34,10.0,SSW,10.4,16.1,N/A,,Clear,210,2013-01-19 09:55:00
5:15 AM,30.2,1.4,29,30.34,10.0,SSW,9.2,-,N/A,,Clear,210,2013-01-19 10:15:00
5:35 AM,30.2,3.2,32,30.33,10.0,SSW,10.4,17.3,N/A,,Clear,210,2013-01-19 10:35:00
5:55 AM,32.0,5.0,32,30.34,10.0,SSW,13.8,17.3,N/A,,Clear,210,2013-01-19 10:55:00
6:15 AM,32.0,6.8,35,30.33,10.0,SSW,11.5,17.3,N/A,,Partly Cloudy,210,2013-01-19 11:15:00
6:35 AM,32.0,8.6,38,30.33,10.0,SW,13.8,17.3,N/A,,Partly Cloudy,220,2013-01-19 11:35:00
6:55 AM,33.8,8.6,35,30.33,10.0,SSW,11.5,19.6,N/A,,Mostly Cloudy,210,2013-01-19 11:55:00
7:15 AM,33.8,8.6,35,30.32,10.0,SW,12.7,20.7,N/A,,Mostly Cloudy,220,2013-01-19 12:15:00
7:35 AM,33.8,10.4,38,30.32,10.0,SSW,10.4,-,N/A,,Clear,210,2013-01-19 12:35:00
7:55 AM,33.8,10.4,38,30.31,10.0,SW,13.8,-,N/A,,Clear,220,2013-01-19 12:55:00
8:15 AM,33.8,10.4,38,30.32,10.0,SW,10.4,18.4,N/A,,Clear,220,2013-01-19 13:15:00
8:35 AM,35.6,10.4,35,30.32,10.0,SW,11.5,-,N/A,,Clear,220,2013-01-19 13:35:00
8:55 AM,35.6,10.4,35,30.32,10.0,SW,12.7,20.7,N/A,,Clear,230,2013-01-19 13:55:00
9:15 AM,37.4,10.4,33,30.32,10.0,SW,13.8,24.2,N/A,,Clear,230,2013-01-19 14:15:00
9:35 AM,39.2,10.4,31,30.32,10.0,SW,15.0,20.7,N/A,,Clear,220,2013-01-19 14:35:00
9:55 AM,39.2,10.4,31,30.31,10.0,SW,12.7,20.7,N/A,,Clear,220,2013-01-19 14:55:00
10:15 AM,41.0,12.2,31,30.31,10.0,SW,13.8,24.2,N/A,,Clear,220,2013-01-19 15:15:00
10:35 AM,42.8,10.4,27,30.29,10.0,SW,13.8,21.9,N/A,,Clear,220,2013-01-19 15:35:00
10:55 AM,44.6,12.2,27,30.27,10.0,SW,12.7,25.3,N/A,,Clear,220,2013-01-19 15:55:00
11:15 AM,44.6,10.4,25,30.25,10.0,SSW,13.8,20.7,N/A,,Clear,210,2013-01-19 16:15:00
11:35 AM,46.4,10.4,23,30.23,10.0,SW,17.3,31.1,N/A,,Clear,230,2013-01-19 16:35:00
11:55 AM,46.4,10.4,23,30.22,10.0,SSW,15.0,24.2,N/A,,Clear,210,2013-01-19 16:55:00
12:15 PM,48.2,12.2,24,30.20,10.0,SW,11.5,24.2,N/A,,Clear,230,2013-01-19 17:15:00
12:35 PM,48.2,12.2,24,30.18,10.0,WSW,15.0,23.0,N/A,,Clear,240,2013-01-19 17:35:00
12:55 PM,50.0,15.8,26,30.17,10.0,SW,11.5,25.3,N/A,,Clear,220,2013-01-19 17:55:00
1:15 PM,50.0,17.6,28,30.17,10.0,SW,18.4,28.8,N/A,,Clear,230,2013-01-19 18:15:00
1:35 PM,51.8,14.0,22,30.16,10.0,SW,17.3,24.2,N/A,,Clear,230,2013-01-19 18:35:00
1:55 PM,51.8,12.2,21,30.15,10.0,SW,9.2,23.0,N/A,,Clear,220,2013-01-19 18:55:00
2:15 PM,51.8,12.2,21,30.13,10.0,SW,15.0,21.9,N/A,,Clear,230,2013-01-19 19:15:00
2:35 PM,51.8,15.8,24,30.13,10.0,SW,13.8,18.4,N/A,,Clear,220,2013-01-19 19:35:00
2:55 PM,51.8,15.8,24,30.12,10.0,SW,10.4,18.4,N/A,,Clear,220,2013-01-19 19:55:00
3:15 PM,51.8,15.8,24,30.12,10.0,SW,12.7,21.9,N/A,,Clear,220,2013-01-19 20:15:00
3:35 PM,51.8,15.8,24,30.11,10.0,SW,13.8,18.4,N/A,,Clear,220,2013-01-19 20:35:00
3:55 PM,51.8,12.2,21,30.10,10.0,SW,15.0,20.7,N/A,,Clear,220,2013-01-19 20:55:00
4:15 PM,51.8,12.2,21,30.10,10.0,SW,8.1,16.1,N/A,,Clear,220,2013-01-19 21:15:00
4:35 PM,51.8,12.2,21,30.09,10.0,SSW,11.5,19.6,N/A,,Clear,210,2013-01-19 21:35:00
4:55 PM,50.0,12.2,22,30.08,10.0,SW,11.5,16.1,N/A,,Clear,220,2013-01-19 21:55:00
5:15 PM,48.2,12.2,24,30.08,10.0,SW,11.5,-,N/A,,Clear,220,2013-01-19 22:15:00
5:35 PM,48.2,12.2,24,30.08,10.0,SW,9.2,-,N/A,,Clear,220,2013-01-19 22:35:00
5:55 PM,46.4,12.2,25,30.08,10.0,SW,8.1,-,N/A,,Clear,220,2013-01-19 22:55:00
6:15 PM,46.4,12.2,25,30.08,10.0,SW,9.2,-,N/A,,Clear,220,2013-01-19 23:15:00
6:35 PM,46.4,12.2,25,30.08,10.0,SW,10.4,-,N/A,,Clear,220,2013-01-19 23:35:00
6:55 PM,44.6,12.2,27,30.08,10.0,SW,10.4,-,N/A,,Clear,220,2013-01-19 23:55:00
7:15 PM,44.6,12.2,27,30.08,10.0,SSW,10.4,-,N/A,,Clear,210,2013-01-20 00:15:00
7:35 PM,44.6,12.2,27,30.08,10.0,SSW,10.4,-,N/A,,Clear,210,2013-01-20 00:35:00
7:55 PM,42.8,12.2,29,30.07,10.0,SSW,12.7,18.4,N/A,,Clear,210,2013-01-20 00:55:00
8:15 PM,42.8,12.2,29,30.06,10.0,SSW,11.5,17.3,N/A,,Clear,210,2013-01-20 01:15:00
8:35 PM,42.8,15.8,34,30.05,10.0,SSW,10.4,17.3,N/A,,Clear,210,2013-01-20 01:35:00
8:55 PM,42.8,15.8,34,30.04,10.0,SSW,11.5,19.6,N/A,,Clear,210,2013-01-20 01:55:00
9:15 PM,42.8,14.0,31,30.04,10.0,SW,11.5,20.7,N/A,,Clear,220,2013-01-20 02:15:00
9:35 PM,41.0,12.2,31,30.03,10.0,SSW,12.7,18.4,N/A,,Clear,210,2013-01-20 02:35:00
9:55 PM,42.8,12.2,29,30.02,10.0,SW,13.8,20.7,N/A,,Clear,220,2013-01-20 02:55:00
10:15 PM,42.8,12.2,29,30.01,10.0,SW,12.7,21.9,N/A,,Clear,220,2013-01-20 03:15:00
10:35 PM,41.0,14.0,33,30.01,10.0,SW,11.5,20.7,N/A,,Clear,220,2013-01-20 03:35:00
10:55 PM,41.0,14.0,33,29.99,10.0,SW,12.7,18.4,N/A,,Clear,220,2013-01-20 03:55:00
11:15 PM,41.0,14.0,33,29.98,10.0,SSW,13.8,-,N/A,,Clear,210,2013-01-20 04:15:00
11:35 PM,41.0,14.0,33,29.97,10.0,SSW,11.5,-,N/A,,Clear,210,2013-01-20 04:35:00
11:55 PM,41.0,14.0,33,29.95,10.0,SSW,13.8,20.7,N/A,,Clear,210,2013-01-20 04:55:00